DW1274 Weather Reports


Display with metric or nautical units.
time (UTC)temp
F
wind
direction
speed
MPH
gust
MPH
rain 1hr
in
rain 24hr
in
rain mn
in
humidity
%
barometer
mb
20260502204701 68 218 3.0 8.0 0.00 0.71 0.71 90 1008.1
20260502204201 68 282 3.0 8.0 0.00 0.71 0.71 90 1008.1
20260502203705 68 282 3.0 10.0 0.00 0.71 0.71 90 1008.2
20260502203201 67 273 4.0 10.0 0.00 0.71 0.71 91 1008.1
20260502202702 67 274 4.0 8.0 0.00 0.71 0.71 92 1008.2
20260502202201 67 308 3.0 6.0 0.00 0.71 0.71 93 1008.2
20260502201701 66 278 4.0 8.0 0.00 0.71 0.71 94 1008.4
20260502201200 66 338 5.0 10.0 0.00 0.71 0.71 94 1008.5
20260502200701 66 325 5.0 11.0 0.00 0.71 0.71 95 1008.6
20260502200203 66 273 5.0 11.0 0.00 0.71 0.71 95 1008.6
20260502195701 66 312 5.0 8.0 0.00 0.71 0.71 96 1008.7
20260502195205 66 293 4.0 8.0 0.00 0.71 0.71 96 1008.7
20260502194201 65 250 4.0 7.0 0.00 0.71 0.71 96 1008.9
20260502193701 65 317 3.0 6.0 0.00 0.71 0.71 96 1008.8
20260502193203 66 309 3.0 5.0 0.00 0.71 0.71 97 1008.8
20260502192202 65 311 4.0 11.0 0.00 0.71 0.71 96 1008.6
20260502191202 66 309 5.0 9.0 0.00 0.71 0.71 96 1008.7
20260502190701 66 273 5.0 9.0 0.00 0.71 0.71 95 1008.8
20260502190201 66 297 5.0 11.0 0.00 0.71 0.71 95 1008.8
20260502185201 67 293 4.0 8.0 0.00 0.71 0.71 95 1008.8
20260502184702 67 286 2.0 7.0 0.00 0.71 0.71 95 1008.6
20260502184202 67 301 1.0 3.0 0.00 0.71 0.71 96 1008.5
20260502183201 67 230 2.0 6.0 0.00 0.71 0.71 96 1008.5
20260502182701 67 283 2.0 4.0 0.00 0.71 0.71 96 1008.4
20260502182202 67 244 2.0 4.0 0.00 0.71 0.71 96 1008.1
20260502181653 67 299 2.0 5.0 0.00 0.71 0.71 96 1008.3
20260502181152 67 322 2.0 5.0 0.00 0.71 0.71 96 1008.2
20260502180653 67 266 1.0 5.0 0.00 0.71 0.71 97 1008.2
20260502180153 67 287 2.0 4.0 0.00 0.71 0.71 96 1008.3
20260502170138 65 323 2.0 4.0 0.08 0.71 0.71 99 1008.8
20260502164138 64 340 3.0 7.0 0.16 0.71 0.71 98 1009.7
20260502163130 64 335 3.0 6.0 0.15 0.70 0.70 99 1008.5
20260502162129 64 310 2.0 6.0 0.16 0.70 0.70 98 1009.2
20260502161629 64 285 2.0 6.0 0.16 0.70 0.70 98 1009.0
20260502161129 64 328 4.0 10.0 0.17 0.70 0.70 98 1009.0
20260502160628 64 291 5.0 10.0 0.17 0.68 0.70 98 1009.1
20260502160129 65 284 4.0 9.0 0.07 0.59 0.59 98 1008.8
20260502152129 63 137 4.0 6.0 0.28 0.55 0.55 98 1008.0
20260502151630 63 77 3.0 5.0 0.33 0.54 0.54 97 1008.3
20260502151129 63 142 2.0 5.0 0.43 0.53 0.54 97 1008.4
20260502150629 62 100 1.0 4.0 0.46 0.53 0.53 97 1008.8
20260502150130 62 0 1.0 4.0 0.47 0.52 0.52 97 1009.1
20260502140129 64 357 3.0 5.0 0.05 0.05 0.05 90 1008.9
20260502130629 65 358 2.0 4.0 0.00 0.00 0.00 87 1009.3
20260502130129 65 308 1.0 4.0 0.00 0.00 0.00 88 1009.3
20260502123630 65 253 1.0 2.0 0.00 0.00 0.00 88 1009.1
20260502123130 65 0 1.0 4.0 0.00 0.00 0.00 88 1008.4
20260502122631 65 163 0.0 4.0 0.00 0.00 0.00 87 1008.6
20260502121628 65 0 0.0 1.0 0.00 0.00 0.00 87 1008.9
20260502121129 65 0 0.0 2.0 0.00 0.00 0.00 87 1008.8
20260502120133 64 100 1.0 2.0 0.00 0.00 0.00 87 1008.7
20260502115630 64 0 0.0 2.0 0.00 0.00 0.00 87 1008.5
20260502115129 64 0 1.0 3.0 0.00 0.00 0.00 87 1008.5
20260502114628 64 285 2.0 3.0 0.00 0.00 0.00 87 1008.5
20260502114129 64 48 1.0 3.0 0.00 0.00 0.00 87 1008.5
20260502113628 64 17 2.0 4.0 0.00 0.00 0.00 87 1008.5
20260502113129 64 8 3.0 5.0 0.00 0.00 0.00 87 1008.5
20260502112129 64 25 2.0 5.0 0.00 0.00 0.00 87 1008.6
20260502111128 64 20 3.0 5.0 0.00 0.00 0.00 88 1008.9
20260502110630 64 355 3.0 5.0 0.00 0.00 0.00 88 1008.8
20260502105629 64 319 2.0 4.0 0.00 0.00 0.00 88 1008.6
20260502105129 64 296 2.0 4.0 0.00 0.00 0.00 88 1008.6
20260502104630 64 314 2.0 3.0 0.00 0.00 0.00 88 1008.4
20260502104129 64 279 2.0 3.0 0.00 0.00 0.00 88 1008.2
20260502103630 64 11 2.0 3.0 0.00 0.00 0.00 89 1008.1
20260502102129 64 280 1.0 4.0 0.00 0.00 0.00 89 1008.0
20260502101630 64 288 1.0 3.0 0.00 0.00 0.00 90 1007.9
20260502101129 64 302 2.0 4.0 0.00 0.00 0.00 90 1007.8
20260502100630 64 298 2.0 4.0 0.00 0.00 0.00 90 1007.8
20260502100129 64 321 2.0 4.0 0.00 0.00 0.00 90 1007.6
20260502090130 65 245 2.0 5.0 0.00 0.00 0.00 88 1007.4
20260502071102 66 233 1.0 2.0 0.00 0.00 0.00 89 1009.9
20260502070106 66 297 1.0 2.0 0.00 0.00 0.00 89 1010.0
20260502065602 66 348 1.0 4.0 0.00 0.00 0.00 88 1009.9
20260502065103 66 285 2.0 4.0 0.00 0.00 0.00 88 1009.8
20260502064102 66 296 1.0 2.0 0.00 0.00 0.00 89 1009.6
20260502063601 66 0 1.0 2.0 0.00 0.00 0.00 89 1009.5
20260502062603 66 0 0.0 0.0 0.00 0.00 0.00 90 1009.5
20260502062101 66 0 0.0 1.0 0.00 0.00 0.00 90 1009.5
20260502061602 66 0 0.0 1.0 0.00 0.00 0.00 90 1009.6
20260502061102 66 0 0.0 1.0 0.00 0.00 0.00 90 1009.6
20260502060601 66 0 0.0 0.0 0.00 0.00 0.00 89 1009.6
20260502055602 66 0 0.0 0.0 0.00 0.00 0.00 89 1010.0
20260502055100 66 0 0.0 0.0 0.00 0.00 0.00 89 1010.0
20260502054602 66 0 0.0 0.0 0.00 0.00 0.00 88 1010.2
20260502054102 66 0 0.0 1.0 0.00 0.00 0.00 88 1010.1
20260502053103 67 322 0.0 1.0 0.00 0.00 0.00 88 1010.0
20260502052102 67 0 0.0 1.0 0.00 0.00 0.00 87 1010.0
20260502051102 67 47 0.0 1.0 0.00 0.00 0.00 87 1010.2
20260502045102 69 0 1.0 3.0 0.00 0.00 0.00 84 1010.5
20260502044602 69 222 1.0 3.0 0.00 0.00 0.00 83 1010.5
20260502044101 70 223 0.0 2.0 0.00 0.00 0.00 82 1010.5
20260502043602 70 0 0.0 2.0 0.00 0.00 0.00 80 1010.2
20260502042603 70 346 1.0 2.0 0.00 0.00 0.00 80 1010.3
20260502042102 70 37 1.0 2.0 0.00 0.00 0.00 79 1010.2
20260502041602 70 315 1.0 2.0 0.00 0.00 0.00 79 1010.4
20260502041102 70 347 1.0 2.0 0.00 0.00 0.00 79 1010.5
20260502040601 70 338 0.0 2.0 0.00 0.00 0.00 79 1010.5
20260502035601 71 32 1.0 2.0 0.00 0.00 0.00 79 1010.6
20260502035102 71 305 2.0 3.0 0.00 0.00 0.00 79 1010.7
20260502034602 71 290 1.0 3.0 0.00 0.00 0.00 79 1010.7
20260502033601 71 17 1.0 4.0 0.00 0.00 0.00 79 1010.4
20260502033102 71 21 1.0 2.0 0.00 0.00 0.00 79 1010.4
20260502032602 71 0 1.0 2.0 0.00 0.00 0.00 79 1010.5
20260502032101 72 23 1.0 2.0 0.00 0.00 0.00 79 1010.5
20260502031602 72 39 1.0 2.0 0.00 0.00 0.00 79 1010.5
20260502031101 72 351 2.0 5.0 0.00 0.00 0.00 79 1010.7
20260502030601 72 20 3.0 6.0 0.00 0.00 0.00 79 1010.4
20260502025603 72 56 3.0 9.0 0.00 0.00 0.00 82 1009.9
20260502025101 72 345 2.0 6.0 0.00 0.00 0.00 86 1010.3
20260502024602 72 67 2.0 6.0 0.00 0.00 0.00 87 1010.2
20260502024100 72 109 2.0 6.0 0.00 0.00 0.00 88 1010.2
20260502023600 73 26 2.0 6.0 0.00 0.00 0.00 88 1010.3
20260502023102 73 24 2.0 7.0 0.00 0.00 0.00 87 1010.7
20260502022600 73 0 2.0 7.0 0.00 0.00 0.00 87 1010.7
20260502022101 73 74 3.0 6.0 0.00 0.00 0.00 87 1010.4
20260502021601 73 76 2.0 5.0 0.00 0.00 0.00 87 1010.7
20260502021101 73 33 1.0 4.0 0.00 0.00 0.00 87 1010.5
20260502020601 73 36 2.0 6.0 0.00 0.00 0.00 86 1010.6
20260502015601 73 33 3.0 6.0 0.00 0.00 0.00 86 1010.8
20260502014602 0 353 1.0 1.0 0.00 0.00 0.00
20260502014101 74 5 2.0 5.0 0.00 0.00 0.00 84 1010.4
20260502013601 74 12 2.0 7.0 0.00 0.00 0.00 84 1010.4
20260502012601 74 126 4.0 9.0 0.00 0.00 0.00 83 1009.0
20260502012102 75 135 4.0 9.0 0.00 0.00 0.00 82 1008.5
20260502011601 75 41 3.0 8.0 0.00 0.00 0.00 81 1009.6
20260502011101 75 61 3.0 7.0 0.00 0.00 0.00 80 1010.1
20260502010601 75 342 4.0 9.0 0.00 0.00 0.00 79 1010.5
20260502010101 76 25 4.0 9.0 0.00 0.00 0.00 79 1009.6
20260502005102 76 50 4.0 11.0 0.00 0.00 0.00 77 1010.1
20260502004601 77 11 3.0 11.0 0.00 0.00 0.00 77 1010.1
20260502004100 77 22 3.0 6.0 0.00 0.00 0.00 76 1010.1
20260502003600 78 24 2.0 7.0 0.00 0.00 0.00 75 1009.9
20260502003102 78 36 2.0 7.0 0.00 0.00 0.00 76 1009.9
20260502002602 78 40 2.0 4.0 0.00 0.00 0.00 75 1009.9
20260502002101 78 94 1.0 3.0 0.00 0.00 0.00 74 1009.9
20260502001602 79 0 2.0 8.0 0.00 0.00 0.00 72 1009.7
20260502001100 79 22 4.0 8.0 0.00 0.00 0.00 71 1009.5
20260502000600 79 18 4.0 6.0 0.00 0.00 0.00 68 1009.5
20260502000101 80 14 4.0 6.0 0.00 0.00 0.00 68 1009.3
20260501235601 80 22 4.0 9.0 0.00 0.00 0.00 68 1009.2
20260501235106 80 10 5.0 9.0 0.00 0.00 0.00 67 1009.0
20260501234101 80 355 5.0 9.0 0.00 0.01 0.00 67 1008.8
20260501233102 80 306 5.0 9.0 0.00 0.02 0.00 66 1008.7
20260501232601 81 314 6.0 11.0 0.00 0.02 0.00 66 1008.6
20260501231601 81 22 3.0 9.0 0.00 0.13 0.00 66 1008.6
20260501231101 81 313 3.0 7.0 0.00 0.23 0.00 65 1008.7
20260501230605 81 356 4.0 9.0 0.00 0.24 0.00 65 1008.6
20260501230101 81 328 5.0 9.0 0.00 0.24 0.00 65 1008.6
20260501225601 82 327 5.0 10.0 0.00 0.24 0.00 65 1008.5
20260501225101 82 348 4.0 10.0 0.00 0.24 0.00 64 1008.3
20260501224100 82 321 3.0 8.0 0.00 0.24 0.00 64 1008.3
20260501223555 83 319 4.0 9.0 0.00 0.24 0.00 63 1008.2
20260501222554 83 348 5.0 9.0 0.00 0.24 0.00 62 1008.2
20260501222054 83 320 5.0 10.0 0.00 0.24 0.00 62 1008.2
20260501221554 83 335 6.0 10.0 0.00 0.24 0.00 62 1008.2
20260501221059 83 343 8.0 0.0 0.00 0.24 0.00 61 1008.1
20260501220530 84 328 3.0 8.0 0.00 0.24 0.00 60 1008.1
20260501220029 84 322 2.0 5.0 0.00 0.24 0.00 60 1008.0
20260501215529 84 343 3.0 6.0 0.00 0.24 0.00 59 1008.0
20260501215030 84 323 3.0 7.0 0.00 0.24 0.00 60 1008.0
20260501214529 84 327 3.0 7.0 0.00 0.24 0.00 59 1008.1
20260501214028 84 288 2.0 4.0 0.00 0.24 0.00 60 1008.0
20260501213530 84 292 2.0 7.0 0.00 0.24 0.00 60 1008.1
20260501213030 84 298 4.0 7.0 0.00 0.24 0.00 60 1008.2
20260501212530 84 325 4.0 9.0 0.00 0.24 0.00 60 1008.2
20260501210530 84 296 3.0 6.0 0.00 0.24 0.00 58 1008.0
20260501210030 84 268 4.0 8.0 0.00 0.24 0.00 59 1007.8
20260501205529 84 320 3.0 8.0 0.00 0.24 0.00 59 1007.8